Location: Perryvale
(54.4667°N, 113.3833°W)
Time: 10:11:17
(UTC+00:00)

Vanguard 3 - Pass Details

Date: 21 May 2024
Orbit: 509 x 3231 km, 33.3° (Epoch: 16 June)

Event Time Altitude Azimuth Distance (km) Brightness Sun altitude
Rises 06:08:04 0° 254° (WSW) 5,432 11.4 -13.2°
Reaches altitude 10° 06:11:49 10° 244° (WSW) 4,796 11.0 -13.4°
Maximum altitude 06:23:37 31° 190° (S) 4,196 10.3 -13.9°
Drops below altitude 10° 06:38:45 10° 139° (SE) 6,154 11.1 -14.4°
Sets 06:44:27 0° 131° (SE) 7,159 11.5 -14.6°
